Le nostre stazioni meteo in Italia

Pubblicità
Il mio iltempo24.it
Threave, Gran Bretagna (99090): Temperatura & dewpoint: 21.02.2017 22:00:00 - 27.02.2017 22:00:00 (GMT)Threave, Gran Bretagna (99090): Temperatura -20cm & Temperatura -100cm: 21.02.2017 22:00:00 - 27.02.2017 22:00:00 (GMT)Threave, Gran Bretagna (99090): precipitazioni: 21.02.2017 22:00:00 - 27.02.2017 22:00:00 (GMT)
Data & Tempo tt [°C] td [°C] tt -20cm [°C] tt -100cm [°C] rr [mm]
27.02.2017 22:00:00 -1,4 -1,6 - - 0,0
27.02.2017 21:00:00 -0,8 -0,9 - - 0,0
27.02.2017 20:00:00 -0,2 -0,4 - - 0,0
27.02.2017 19:00:00 0,1 -0,5 - - 0,0
27.02.2017 18:00:00 2,1 0,9 - - 0,0
27.02.2017 17:00:00 3,4 2,0 - - 0,0
27.02.2017 16:00:00 2,7 2,1 - - 0,0
27.02.2017 15:00:00 2,4 2,0 - - 0,4
27.02.2017 14:00:00 1,8 1,2 - - 1,8
27.02.2017 13:00:00 3,3 2,8 - - 0,4
27.02.2017 12:00:00 2,2 0,6 - - 2,2
27.02.2017 11:00:00 4,4 2,2 - - 0,0
27.02.2017 10:00:00 4,1 3,3 - - 0,0
27.02.2017 09:00:00 2,6 1,7 6,7 7,2 0,0
27.02.2017 08:00:00 1,8 1,5 - - 0,0
27.02.2017 07:00:00 1,4 0,6 - - 0,0
27.02.2017 06:00:00 3,0 1,6 - - 0,0
27.02.2017 05:00:00 4,2 1,8 - - 0,0
27.02.2017 04:00:00 4,2 2,2 - - 0,0
27.02.2017 03:00:00 4,7 2,7 - - 0,0
27.02.2017 02:00:00 4,8 2,9 - - 0,0
27.02.2017 01:00:00 5,1 2,5 - - 0,0
27.02.2017 00:00:00 5,3 2,2 - - 0,0
26.02.2017 23:00:00 4,5 1,3 - - 0,0
26.02.2017 22:00:00 5,1 2,0 - - 0,0
26.02.2017 21:00:00 5,4 2,7 - - 0,0
26.02.2017 20:00:00 6,3 4,3 - - 0,0
26.02.2017 19:00:00 5,4 3,5 - - 0,0
26.02.2017 18:00:00 6,5 4,4 - - 0,0
26.02.2017 17:00:00 8,0 6,6 - - 0,0
26.02.2017 16:00:00 8,5 7,0 - - 0,2
26.02.2017 15:00:00 8,9 8,1 - - 0,6
26.02.2017 14:00:00 8,7 7,8 - - 0,4
26.02.2017 13:00:00 8,4 7,9 - - 0,8
26.02.2017 12:00:00 8,4 7,7 - - 0,2
26.02.2017 11:00:00 8,1 7,5 - - 0,6
26.02.2017 10:00:00 7,6 7,0 - - 0,6
26.02.2017 09:00:00 7,5 6,7 6,7 7,2 0,2
26.02.2017 08:00:00 6,8 5,9 - - 1,2
26.02.2017 07:00:00 7,2 4,9 - - 0,0
26.02.2017 06:00:00 7,0 4,5 - - 0,0
26.02.2017 05:00:00 6,7 4,7 - - 0,0
26.02.2017 04:00:00 6,5 4,9 - - 0,0
26.02.2017 03:00:00 6,0 4,8 - - 0,0
26.02.2017 02:00:00 6,5 5,4 - - 0,0
26.02.2017 01:00:00 6,3 5,9 - - 0,0
26.02.2017 00:00:00 5,9 5,1 - - 0,0
25.02.2017 23:00:00 5,6 4,8 - - 0,0
25.02.2017 22:00:00 5,9 4,8 - - 0,0
25.02.2017 21:00:00 5,7 4,8 - - 0,0
25.02.2017 20:00:00 5,9 4,5 - - 0,0
25.02.2017 19:00:00 6,4 4,8 - - 0,0
25.02.2017 18:00:00 7,6 5,9 - - 0,0
25.02.2017 17:00:00 9,5 7,6 - - 0,0
25.02.2017 16:00:00 9,8 9,3 - - 0,2
25.02.2017 15:00:00 9,5 8,9 - - 0,2
25.02.2017 14:00:00 9,9 8,8 - - 0,0
25.02.2017 13:00:00 9,7 8,4 - - 0,0
25.02.2017 12:00:00 9,3 8,3 - - 0,0
25.02.2017 11:00:00 9,0 8,0 - - 0,0
25.02.2017 10:00:00 8,7 7,7 - - 0,0
25.02.2017 09:00:00 8,2 7,4 6,4 6,9 0,2
25.02.2017 08:00:00 7,9 7,3 - - 1,2
25.02.2017 07:00:00 7,7 7,2 - - 5,0
25.02.2017 06:00:00 7,5 6,9 - - 3,4
25.02.2017 05:00:00 7,5 6,7 - - 0,2
25.02.2017 04:00:00 7,4 6,8 - - 0,4
25.02.2017 03:00:00 7,2 6,8 - - 2,0
25.02.2017 02:00:00 7,2 6,8 - - 2,4
25.02.2017 01:00:00 7,2 6,8 - - 3,2
25.02.2017 00:00:00 7,2 6,9 - - 2,4
24.02.2017 23:00:00 7,1 6,7 - - 0,4
24.02.2017 22:00:00 6,7 6,3 - - 2,2
24.02.2017 21:00:00 5,9 5,6 - - 0,8
24.02.2017 20:00:00 5,4 4,9 - - 0,4
24.02.2017 19:00:00 5,0 4,0 - - 1,0
24.02.2017 18:00:00 5,0 3,5 - - 0,4
24.02.2017 17:00:00 5,0 2,4 - - 0,2
24.02.2017 16:00:00 5,8 1,6 - - 0,0
24.02.2017 15:00:00 6,5 2,8 - - 0,0
24.02.2017 14:00:00 7,0 2,7 - - 0,0
24.02.2017 13:00:00 6,9 1,4 - - 0,0
24.02.2017 12:00:00 7,5 2,2 - - 0,0
24.02.2017 11:00:00 7,2 2,3 - - 0,0
24.02.2017 10:00:00 5,6 2,5 - - 0,0
24.02.2017 09:00:00 1,6 1,3 6,5 7,0 0,0
24.02.2017 08:00:00 0,0 -0,8 - - 0,0
24.02.2017 07:00:00 0,5 -0,7 - - 0,0
24.02.2017 06:00:00 1,4 -0,9 - - 0,0
24.02.2017 05:00:00 1,6 -0,5 - - 0,0
24.02.2017 04:00:00 2,2 0,3 - - 0,0
24.02.2017 03:00:00 2,1 0,3 - - 0,0
24.02.2017 02:00:00 1,4 0,4 - - 0,0
24.02.2017 01:00:00 2,9 0,8 - - 0,0
24.02.2017 00:00:00 3,2 0,6 - - 0,0
23.02.2017 23:00:00 2,5 1,5 - - 0,8
23.02.2017 22:00:00 2,5 1,5 - - 0,0
23.02.2017 21:00:00 2,7 2,0 - - 0,0
23.02.2017 20:00:00 3,1 1,9 - - 0,2
23.02.2017 19:00:00 3,5 1,8 - - 0,0
23.02.2017 18:00:00 3,1 1,3 - - 0,0
23.02.2017 17:00:00 4,2 1,5 - - 0,0
23.02.2017 16:00:00 4,2 2,2 - - 0,0
23.02.2017 15:00:00 4,6 2,0 - - 0,0
23.02.2017 14:00:00 4,8 2,3 - - 0,0
23.02.2017 13:00:00 4,7 2,6 - - 0,0
23.02.2017 12:00:00 3,5 1,9 - - 0,0
23.02.2017 11:00:00 4,3 2,2 - - 0,0
23.02.2017 10:00:00 7,0 5,5 - - 0,0
23.02.2017 09:00:00 6,1 5,9 6,9 6,9 0,0
23.02.2017 08:00:00 5,4 4,3 - - 0,4
23.02.2017 07:00:00 7,7 5,4 - - 0,0
23.02.2017 06:00:00 8,1 7,5 - - 2,2
23.02.2017 05:00:00 8,3 8,3 - - 0,4
23.02.2017 04:00:00 4,9 4,9 - - 3,8
23.02.2017 03:00:00 4,8 4,6 - - 2,6
23.02.2017 02:00:00 5,3 5,0 - - 1,2
23.02.2017 01:00:00 5,3 5,1 - - 2,0
23.02.2017 00:00:00 5,1 4,9 - - 1,6
22.02.2017 23:00:00 5,3 4,8 - - 0,2
22.02.2017 22:00:00 5,3 4,1 - - 0,0
22.02.2017 21:00:00 5,3 3,9 - - 0,0
22.02.2017 20:00:00 5,6 4,0 - - 0,0
22.02.2017 19:00:00 5,8 3,7 - - 0,0
22.02.2017 18:00:00 5,8 3,5 - - 0,0
22.02.2017 17:00:00 6,0 2,5 - - 0,0
22.02.2017 16:00:00 7,0 4,2 - - 0,2
22.02.2017 15:00:00 7,8 3,2 - - 0,0
22.02.2017 14:00:00 7,9 3,5 - - 0,0
22.02.2017 13:00:00 7,7 3,5 - - 0,0
22.02.2017 12:00:00 7,3 3,8 - - 0,0
22.02.2017 11:00:00 6,9 3,6 - - 0,0
22.02.2017 10:00:00 6,5 3,4 - - 0,0
22.02.2017 09:00:00 6,0 2,8 7,0 6,7 0,0
22.02.2017 08:00:00 5,7 3,2 - - 0,0
22.02.2017 07:00:00 5,6 3,0 - - 0,0
22.02.2017 06:00:00 5,6 2,9 - - 0,0
22.02.2017 05:00:00 5,1 2,9 - - 0,0
22.02.2017 04:00:00 5,8 1,6 - - 0,0
22.02.2017 03:00:00 5,9 3,0 - - 0,0
22.02.2017 02:00:00 7,3 5,2 - - 0,0
22.02.2017 01:00:00 7,3 5,5 - - 0,4
22.02.2017 00:00:00 9,0 7,8 - - 0,8
21.02.2017 23:00:00 9,7 8,5 - - 0,2
21.02.2017 22:00:00 9,6 8,9 - - 0,4

tt = Temperatura
td = dewpoint
tt -20cm = Temperatura -20cm
tt -100cm = Temperatura -100cm
rr = precipitazioni

Stazioni seguenti

WeatherPro
AMSI
MeteoEarth